Theta_e
294 294 295 295 295 295 293 293 289 291 294 298 300 301 302 301 302 302 302 307 309 310 310 314 317 318 319 321 322 323 322 322 320 319 315 312 310 308 306 305 304 302 302 301
290 294 294 293 295 296 296 294 294 294 294 302 302 302 301 302 303 302 301 306 310 311 312 317 317 315 314 315 320 322 320 317 313 311 309 307 305 305 303 302 302 300 299 299
284 291 292 286 292 295 295 297 295 291 296 302 301 302 302 301 303 302 302 302 309 311 314 318 316 315 313 313 315 315 313 312 310 308 306 304 304 302 300 299 299 299 297 297
284 285 281 292 298 297 295 297 298 296 297 301 300 303 301 303 304 301 302 301 305 313 314 317 316 314 312 312 312 311 311 309 308 306 303 302 301 300 300 299 296 296 295 294
284 284 289 293 295 295 294 294 299 298 298 298 299 298 297 301 302 302 302 303 307 312 314 316 315 313 311 310 310 308 307 306 306 304 302 301 299 297 295 294 294 294 295 294
284 281 279 290 297 300 299 288 298 299 299 299 299 290 294 301 304 305 307 310 312 310 311 311 311 311 309 306 305 304 304 303 303 303 300 298 296 295 295 295 296 296 293 291
284 283 286 295 300 301 289 289 299 302 301 300 297 297 300 303 305 306 307 308 308 311 310 307 307 307 304 303 302 303 303 301 299 298 297 297 296 296 295 292 290 287 285 284
285 283 280 300 300 292 295 301 303 303 301 299 300 300 301 305 305 305 305 305 307 306 305 305 305 304 301 300 301 301 300 298 297 297 297 296 294 294 290 288 285 283 281 279
288 287 298 300 301 304 303 301 303 302 304 304 301 300 302 302 303 304 304 302 304 303 300 300 302 302 298 297 298 298 297 296 295 295 294 293 291 288 287 286 284 282 280 278
292 296 298 299 302 304 304 303 305 304 304 304 303 303 301 301 301 301 301 301 300 300 299 297 299 299 298 298 297 296 294 293 293 290 286 286 285 285 284 281 282 281 280 278
292 296 298 299 301 302 302 305 305 305 303 302 303 303 303 301 300 300 300 300 300 299 297 296 297 297 297 297 296 294 292 287 285 284 283 280 279 279 280 280 281 281 279 279
289 296 295 297 300 304 301 302 303 303 303 303 302 304 302 301 300 301 299 299 297 296 295 294 294 294 294 294 292 289 285 283 282 281 280 278 278 278 282 281 282 282 281 279
294 297 298 299 300 301 301 301 303 303 304 302 305 305 302 299 299 295 298 296 294 288 287 286 286 286 288 289 288 285 283 282 282 281 280 279 279 279 277 279 281 280 280 280
296 298 297 296 296 298 299 300 300 300 300 299 301 303 299 297 297 295 290 286 285 284 283 282 282 282 284 284 283 282 281 281 281 280 280 280 280 279 279 278 277 277 279 278
293 296 296 298 297 296 297 297 294 290 288 287 289 295 295 291 286 284 284 282 281 280 280 280 280 280 282 283 281 280 280 279 280 279 279 279 279 279 279 278 278 278 278 277
294 293 294 293 291 290 291 290 287 284 283 282 281 280 280 280 279 279 279 280 278 277 278 278 278 280 281 281 281 280 279 279 279 278 278 278 278 277 277 277 276 275 275 273
289 288 290 291 287 286 284 284 283 281 280 280 279 279 279 278 277 276 276 277 277 277 277 277 277 279 279 278 277 277 278 278 277 277 276 276 276 275 275 274 274 274 272 271
287 287 288 288 287 284 282 281 280 279 278 278 277 277 276 275 274 274 274 274 274 273 274 276 277 277 277 277 277 277 276 276 276 276 275 273 273 274 273 273 273 272 271 271
283 282 282 281 281 280 279 278 277 277 277 277 275 274 274 274 274 273 274 273 272 271 272 275 276 276 275 276 276 275 275 274 274 274 273 272 272 272 271 271 270 270 270 270
279 279 279 278 279 278 277 277 277 276 276 275 274 273 272 273 273 273 273 271 272 273 274 274 274 274 274 274 275 274 273 272 272 272 271 271 270 269 269 270 269 268 267 267
277 277 276 276 276 276 276 277 276 275 275 275 273 273 272 273 273 273 272 270 272 273 272 272 272 272 273 274 273 272 271 271 270 269 268 268 268 268 266 266 265 264 263 263
276 276 276 276 276 276 277 277 276 276 275 274 274 273 272 272 272 272 273 271 272 271 271 270 270 271 272 272 272 270 269 269 268 268 267 266 265 264 262 261 260 260 258 255
277 277 276 276 275 275 276 275 275 275 274 274 274 274 273 273 273 272 269 272 271 270 270 269 269 270 270 269 268 267 266 265 264 263 261 260 259 259 259 260 260 259 255 256
276 277 277 278 277 276 274 275 275 275 274 274 274 274 273 270 271 272 271 270 269 268 268 268 268 268 267 266 264 263 262 261 259 255 256 255 252 252 252 250 252 252 256 256
274 273 274 274 273 273 274 274 274 273 273 273 273 273 273 272 270 270 269 269 268 266 265 263 262 261 259 258 258 257 256 255 255 254 253 250 249 248 248 250 251 252 252 251
272 271 271 271 271 271 272 272 271 271 271 269 269 269 269 270 269 268 267 266 266 265 265 265 263 261 259 259 256 253 252 254 253 252 249 249 248 249 249 250 249 248 247 246
269 270 270 268 268 269 268 268 267 267 266 264 264 266 266 266 266 266 263 262 260 259 259 256 257 256 255 252 252 251 251 252 253 252 249 247 247 248 248 247 246 245 244 246
Wind_Speed
18 16 17 6 9 10 14 9 11 8 12 11 12 10 9 9 6 9 9 7 8 9 8 7 6 5 8 11 15 17 17 16 15 7 8 10 9 9 10 8 7 9 9 8
19 19 17 19 17 19 17 6 7 7 8 8 10 9 8 10 12 9 10 15 12 9 9 9 8 9 9 10 9 11 11 10 10 12 12 11 11 10 10 9 9 10 9 9
7 6 12 8 26 21 8 6 5 7 9 9 9 10 10 12 14 11 10 12 12 11 12 13 12 12 12 15 14 13 12 13 13 13 12 12 11 10 9 10 10 10 8 9
7 8 13 19 5 10 11 13 13 6 7 13 11 14 10 13 15 12 9 10 12 13 10 9 11 9 11 12 14 16 14 13 13 13 13 13 13 12 11 10 11 10 10 8
4 6 9 13 9 16 15 20 14 9 10 8 8 5 3 6 9 11 10 8 4 5 6 11 12 12 12 11 11 13 14 14 14 15 14 13 13 12 10 11 10 10 9 9
4 7 9 2 10 5 3 7 5 7 10 7 2 3 6 7 4 6 7 7 9 8 9 13 11 13 14 11 11 11 11 11 11 12 13 13 13 12 10 10 9 7 7 7
3 5 10 6 8 5 8 5 5 4 4 7 5 9 7 8 2 3 7 11 9 9 11 11 11 12 13 11 10 9 10 11 12 11 12 12 11 9 8 7 9 10 10 8
3 2 9 5 8 3 2 5 7 8 9 3 5 3 7 10 10 10 12 10 8 11 9 9 11 13 11 9 9 10 11 13 12 11 10 9 10 8 9 10 11 10 11 8
9 10 16 6 3 1 3 4 4 4 9 9 6 4 6 3 9 10 11 8 6 10 10 6 7 11 13 8 13 12 12 11 10 9 7 6 8 8 8 9 9 8 8 8
3 8 14 7 4 10 11 7 5 2 4 7 8 7 5 5 7 6 7 8 6 10 10 7 6 8 12 12 13 13 12 10 8 9 9 9 7 5 6 6 7 7 7 7
6 5 5 4 6 7 9 6 4 2 2 3 6 10 7 9 6 7 8 6 8 10 10 8 10 11 11 12 14 13 12 10 10 9 10 10 10 7 6 6 5 7 5 6
8 7 5 6 7 6 8 4 3 3 1 4 2 10 2 4 7 10 12 9 10 10 12 10 10 10 9 9 12 14 12 9 8 8 8 8 9 10 19 15 18 17 14 8
6 15 7 4 6 8 4 5 5 6 5 4 5 4 4 5 3 8 10 11 12 13 13 12 12 12 10 11 13 13 13 11 9 9 8 8 7 7 8 8 14 13 13 13
14 10 7 9 5 6 5 6 6 8 8 9 6 2 9 9 12 13 13 13 15 15 15 15 16 15 12 14 17 16 15 16 10 9 8 7 6 6 4 4 3 3 4 6
16 12 6 6 5 7 6 6 11 12 11 13 14 11 13 17 17 16 14 14 18 19 16 16 18 15 12 14 18 16 13 10 10 8 8 7 6 5 4 4 3 2 3 4
12 7 11 12 11 13 11 12 12 11 12 13 15 17 17 19 18 17 15 13 15 16 16 16 17 12 12 14 15 12 11 13 10 7 6 6 5 4 3 3 3 2 3 3
8 9 10 11 12 13 13 10 12 12 11 13 14 14 16 18 20 19 17 17 17 16 14 15 13 12 12 12 12 8 7 8 9 7 6 5 4 4 3 3 2 2 2 1
9 10 11 10 8 8 10 12 12 13 13 13 14 16 17 17 17 16 14 14 17 17 15 13 13 13 13 12 10 8 7 7 6 6 5 5 4 3 3 3 3 3 2 1
14 14 14 15 12 11 12 12 12 14 13 13 16 17 16 15 14 14 13 15 14 14 11 12 16 14 12 12 10 7 7 7 6 5 5 5 4 4 4 3 2 2 2 2
15 15 16 16 15 13 13 12 14 15 13 14 15 16 16 14 13 15 16 16 12 9 10 11 13 12 10 11 10 7 7 7 6 5 4 3 3 3 3 4 4 3 3 3
14 15 16 15 15 14 14 12 14 15 13 14 15 14 14 12 11 11 14 12 11 12 12 13 10 7 6 7 7 6 6 6 6 5 4 4 4 4 3 3 3 2 2 1
12 14 14 14 14 15 14 13 14 14 14 14 14 13 13 13 13 13 13 12 8 12 9 8 7 10 8 10 7 7 7 7 6 5 6 6 5 5 4 4 3 2 2 1
13 14 14 14 15 15 15 15 14 14 15 14 13 12 12 9 7 7 9 9 8 10 8 7 9 12 12 7 7 6 6 6 5 3 3 4 4 3 3 3 3 3 3 1
14 14 14 12 12 14 15 14 14 14 14 14 14 11 9 8 9 8 9 11 11 9 7 7 10 12 9 6 6 5 5 5 5 4 3 4 2 2 3 3 3 3 3 3
15 14 13 12 12 9 11 11 11 12 13 13 13 12 12 9 8 7 6 7 9 7 6 8 9 9 5 5 5 5 4 3 2 3 3 3 2 2 2 3 2 2 2 2
12 9 9 13 9 8 8 8 8 8 8 9 9 8 7 7 7 7 8 8 7 8 7 7 7 6 5 5 5 4 3 4 4 3 3 2 2 3 2 2 2 2 3 3
10 11 8 9 8 8 7 8 8 8 7 7 8 7 7 7 8 8 8 7 6 6 5 4 4 5 4 3 3 3 2 2 3 2 2 2 2 1 1 2 3 3 3 2
Wind_Direction
255 220 233 247 265 237 218 199 192 208 218 217 216 228 230 230 243 187 204 226 205 187 174 162 154 139 178 168 174 177 186 192 203 173 144 139 137 137 121 127 131 121 119 119
245 234 224 222 242 259 248 210 245 226 218 205 218 221 239 210 221 218 194 206 216 194 155 161 164 148 122 113 150 173 170 156 143 143 141 133 132 127 125 126 123 120 126 128
290 253 228 237 208 232 250 212 179 229 231 217 232 247 238 230 219 205 218 204 197 195 173 172 173 162 155 141 138 142 148 151 144 138 134 133 132 130 127 133 127 123 121 122
292 291 238 257 168 222 253 252 238 215 238 229 224 243 249 226 204 220 223 192 195 195 188 159 156 151 132 135 139 146 147 141 136 136 136 138 135 139 146 136 132 130 132 133
271 279 280 241 250 211 224 245 234 215 230 227 224 197 269 234 210 229 206 177 183 176 140 131 143 141 135 133 137 139 145 147 148 146 142 144 147 146 135 130 135 141 141 136
132 279 258 359 206 243 112 256 255 192 199 267 156 97 249 243 182 139 133 136 135 122 113 118 136 142 142 144 144 150 147 143 143 142 142 141 135 140 141 135 132 127 106 101
185 244 277 256 296 160 191 258 323 306 256 228 166 203 226 147 138 120 144 138 126 133 139 135 132 133 133 137 140 139 138 133 128 129 128 133 137 142 136 119 111 107 99 89
96 276 268 286 47 28 258 323 330 1 343 292 236 260 189 163 157 153 147 135 145 132 135 140 136 130 130 128 130 125 128 125 127 132 137 141 134 123 116 116 114 113 110 93
169 200 248 278 114 75 226 242 319 3 353 345 309 232 162 192 166 164 150 135 129 129 120 108 120 134 126 128 124 120 117 117 118 114 109 102 108 109 115 118 122 123 121 118
163 239 236 244 192 195 215 210 203 84 9 11 319 313 296 137 163 142 132 135 120 119 118 105 107 112 123 126 122 117 112 109 102 90 80 71 69 77 105 108 123 130 136 135
234 261 271 233 232 207 257 212 206 147 112 295 321 262 224 173 175 142 128 115 124 125 123 117 118 114 122 127 125 117 110 99 94 92 94 86 64 54 68 48 83 123 108 127
240 230 196 226 223 205 202 201 151 200 51 306 268 273 231 193 160 157 130 130 110 103 101 95 98 101 104 112 114 112 103 102 106 104 98 98 100 86 63 73 79 85 95 108
329 307 225 13 34 8 56 14 5 345 323 322 246 263 232 138 116 97 101 108 106 102 98 89 78 72 78 96 98 96 102 100 95 92 96 102 100 104 109 76 80 89 101 106
339 348 30 25 15 32 45 25 20 24 17 2 321 86 113 92 88 90 90 95 94 91 85 85 82 70 71 87 88 86 87 88 92 93 90 88 91 95 99 123 118 108 123 135
342 7 7 348 23 21 19 44 49 36 18 25 28 51 88 93 85 86 83 88 95 90 81 84 84 70 62 81 87 86 86 88 85 79 80 89 94 91 87 89 100 133 138 137
317 12 24 45 32 26 30 36 56 38 38 39 53 55 61 76 80 75 71 72 80 82 85 81 76 75 80 78 78 79 83 87 91 95 96 89 85 86 90 91 97 91 107 141
352 10 6 34 38 33 38 46 61 64 64 65 67 75 77 80 78 75 72 74 73 68 64 70 74 71 73 75 80 83 82 79 79 78 82 83 75 80 83 78 73 72 80 76
28 36 36 43 49 60 56 57 64 68 69 74 77 78 77 78 85 84 80 78 73 66 58 60 66 66 65 67 74 77 77 80 76 78 74 64 61 61 68 66 73 90 78 84
47 52 55 59 60 67 67 64 64 69 69 77 78 76 80 79 80 83 83 76 73 73 55 63 69 68 66 63 63 67 69 72 76 76 77 71 58 69 63 56 61 71 65 68
52 54 56 57 55 56 66 63 68 66 65 75 81 79 76 73 77 80 76 71 67 74 71 63 65 63 64 62 61 62 62 60 61 65 56 56 59 54 51 58 57 57 55 70
57 60 60 60 61 60 59 64 73 72 70 70 76 77 79 77 75 82 83 82 67 65 66 61 59 53 52 63 66 63 64 63 57 55 55 55 58 57 55 49 51 70 81 51
62 64 65 66 67 64 59 63 67 71 71 70 69 72 76 74 75 75 67 79 76 66 63 55 48 42 60 60 61 61 59 58 55 53 49 45 44 39 29 19 9 347 332 338
61 63 63 59 62 65 61 56 56 60 66 62 64 66 66 62 55 76 80 68 73 69 67 61 53 56 60 57 57 55 55 62 66 57 45 47 48 51 42 20 354 341 340 11
55 57 60 62 68 67 64 57 60 61 62 63 61 58 70 74 66 66 75 78 81 74 68 63 65 68 66 59 54 52 51 47 51 56 70 84 63 40 31 12 11 358 34 37
55 52 48 50 52 47 60 67 68 64 66 65 62 61 64 56 72 83 80 73 74 68 60 52 58 54 52 51 53 51 45 52 61 64 59 63 47 49 30 33 40 37 358 323
59 59 58 52 49 48 50 54 64 58 66 65 52 46 51 61 61 68 68 64 62 62 62 59 56 52 46 43 46 46 43 32 41 51 63 38 31 48 51 35 1 332 297 287
52 54 62 59 46 46 49 55 65 63 58 62 64 37 45 50 64 70 63 59 59 61 59 42 42 46 51 47 36 34 57 80 69 69 35 20 48 117 340 310 302 297 303 318